Time,TemperatureF,DewpointF,PressureIn,WindDirection,WindDirectionDegrees,WindSpeedMPH,WindSpeedGustMPH,Humidity,HourlyPrecipIn,Conditions,Clouds,dailyrainin,SoftwareType,DateUTC
2013-07-16 00:00:00,71.5,69.1,30.16,ENE,72,2.0,7.0,92,0.00,,-RA,0.43,VWS V14.01,2013-07-16 05:00:00,
2013-07-16 00:05:00,71.5,69.4,30.16,ENE,72,2.0,3.0,93,0.00,,OVC130,0.00,VWS V14.01,2013-07-16 05:05:00,
2013-07-16 00:10:00,71.3,68.9,30.16,ENE,71,1.0,5.0,92,0.00,,OVC130,0.00,VWS V14.01,2013-07-16 05:10:00,
2013-07-16 00:15:00,71.1,69.0,30.17,ENE,71,0.0,5.0,93,0.00,,OVC130,0.00,VWS V14.01,2013-07-16 05:15:00,
2013-07-16 00:20:00,71.1,69.3,30.17,ENE,66,0.0,5.0,94,0.00,,OVC130,0.00,VWS V14.01,2013-07-16 05:20:00,
2013-07-16 00:25:00,71.1,69.3,30.17,ENE,72,2.0,5.0,94,0.00,,OVC130,0.00,VWS V14.01,2013-07-16 05:25:00,
2013-07-16 00:30:00,71.1,69.3,30.17,ENE,72,0.0,5.0,94,0.00,,OVC130,0.00,VWS V14.01,2013-07-16 05:30:00,
2013-07-16 00:35:00,70.9,69.1,30.17,East,80,0.0,5.0,94,0.00,,OVC130,0.00,VWS V14.01,2013-07-16 05:35:00,
2013-07-16 00:40:00,70.9,69.1,30.17,East,79,1.0,5.0,94,0.00,,OVC130,0.00,VWS V14.01,2013-07-16 05:40:00,
2013-07-16 00:45:00,70.8,69.0,30.17,ENE,78,1.0,5.0,94,0.00,,OVC130,0.00,VWS V14.01,2013-07-16 05:45:00,
2013-07-16 00:50:00,70.8,69.0,30.17,ENE,78,0.0,5.0,94,0.00,,OVC130,0.00,VWS V14.01,2013-07-16 05:50:00,
2013-07-16 00:55:00,70.6,68.8,30.17,ENE,78,1.0,5.0,94,0.00,,OVC130,0.00,VWS V14.01,2013-07-16 05:55:00,
2013-07-16 01:00:00,70.6,68.8,30.17,ENE,78,0.0,0.0,94,0.00,,BKN150,0.00,VWS V14.01,2013-07-16 06:00:00,
2013-07-16 01:05:00,70.4,68.9,30.17,ENE,78,0.0,0.0,95,0.00,,BKN150,0.00,VWS V14.01,2013-07-16 06:05:00,
2013-07-16 01:10:00,70.4,68.9,30.17,ENE,78,0.0,1.0,95,0.00,,BKN150,0.00,VWS V14.01,2013-07-16 06:10:00,
2013-07-16 01:15:00,70.4,68.9,30.17,ENE,78,0.0,1.0,95,0.00,,BKN150,0.00,VWS V14.01,2013-07-16 06:15:00,
2013-07-16 01:21:00,70.4,68.9,30.17,ENE,78,0.0,3.0,95,0.00,,BKN150,0.00,VWS V14.01,2013-07-16 06:21:00,
2013-07-16 01:26:00,70.4,69.2,30.17,ENE,78,0.0,3.0,96,0.00,,BKN150,0.00,VWS V14.01,2013-07-16 06:26:00,
2013-07-16 01:31:00,70.4,69.2,30.16,ENE,78,0.0,3.0,96,0.00,,BKN150,0.00,VWS V14.01,2013-07-16 06:31:00,
2013-07-16 01:36:00,70.4,69.2,30.16,ENE,78,0.0,3.0,96,0.00,,BKN150,0.00,VWS V14.01,2013-07-16 06:36:00,
2013-07-16 01:41:00,70.4,69.2,30.16,ENE,78,0.0,3.0,96,0.00,,BKN150,0.00,VWS V14.01,2013-07-16 06:41:00,
2013-07-16 01:46:00,70.3,69.1,30.16,ENE,78,2.0,3.0,96,0.00,,BKN150,0.00,VWS V14.01,2013-07-16 06:46:00,
2013-07-16 01:51:00,70.3,69.1,30.16,ENE,78,0.0,3.0,96,0.00,,BKN150,0.00,VWS V14.01,2013-07-16 06:51:00,
2013-07-16 01:56:00,70.3,69.1,30.16,ENE,78,0.0,3.0,96,0.00,,BKN150,0.00,VWS V14.01,2013-07-16 06:56:00,
2013-07-16 02:00:00,70.3,69.1,30.16,ENE,78,0.0,3.0,96,0.00,,OVC041CB,0.00,VWS V14.01,2013-07-16 07:00:00,
2013-07-16 02:01:00,70.3,69.1,30.16,ENE,78,0.0,1.0,96,0.00,,BKN150,0.00,VWS V14.01,2013-07-16 07:01:00,
2013-07-16 02:06:00,70.3,69.1,30.16,ENE,78,2.0,2.0,96,0.00,,BKN150,0.00,VWS V14.01,2013-07-16 07:06:00,
2013-07-16 02:11:00,70.3,69.4,30.16,ENE,78,1.0,2.0,97,0.00,,BKN150,0.00,VWS V14.01,2013-07-16 07:11:00,
2013-07-16 02:16:00,70.3,69.4,30.16,ENE,78,1.0,2.0,97,0.00,,BKN150,0.00,VWS V14.01,2013-07-16 07:16:00,
2013-07-16 02:21:00,70.3,69.1,30.16,East,83,0.0,2.0,96,0.00,,BKN150,0.00,VWS V14.01,2013-07-16 07:21:00,
2013-07-16 02:26:00,70.4,69.2,30.16,East,83,0.0,3.0,96,0.00,,BKN150,0.00,VWS V14.01,2013-07-16 07:26:00,
2013-07-16 02:31:00,70.4,69.2,30.16,East,83,0.0,3.0,96,0.00,,BKN150,0.00,VWS V14.01,2013-07-16 07:31:00,
2013-07-16 02:36:00,70.4,69.2,30.16,East,79,0.0,3.0,96,0.00,,BKN150,0.00,VWS V14.01,2013-07-16 07:36:00,
2013-07-16 02:41:00,70.4,69.2,30.16,ENE,75,0.0,3.0,96,0.00,,BKN150,0.00,VWS V14.01,2013-07-16 07:41:00,
2013-07-16 02:46:00,70.4,69.2,30.16,ENE,75,0.0,3.0,96,0.00,,BKN150,0.00,VWS V14.01,2013-07-16 07:46:00,
2013-07-16 02:51:00,70.4,69.2,30.16,ENE,75,2.0,3.0,96,0.00,,BKN150,0.00,VWS V14.01,2013-07-16 07:51:00,
2013-07-16 02:57:00,70.6,69.1,30.16,ENE,75,2.0,3.0,95,0.00,,BKN150,0.00,VWS V14.01,2013-07-16 07:57:00,
2013-07-16 03:02:00,70.6,69.4,30.16,NE,37,1.0,2.0,96,0.00,,BKN190,0.00,VWS V14.01,2013-07-16 08:02:00,
2013-07-16 03:07:00,70.4,69.2,30.16,NE,37,0.0,2.0,96,0.00,,BKN190,0.00,VWS V14.01,2013-07-16 08:07:00,
2013-07-16 03:12:00,70.4,69.5,30.16,NE,38,0.0,3.0,97,0.00,,BKN190,0.00,VWS V14.01,2013-07-16 08:12:00,
2013-07-16 03:17:00,70.4,69.5,30.16,NE,38,0.0,3.0,97,0.00,,BKN190,0.00,VWS V14.01,2013-07-16 08:17:00,
2013-07-16 03:22:00,70.4,69.5,30.16,NE,38,2.0,3.0,97,0.00,,BKN190,0.00,VWS V14.01,2013-07-16 08:22:00,
2013-07-16 03:27:00,70.4,69.5,30.16,NE,38,0.0,3.0,97,0.00,,BKN190,0.00,VWS V14.01,2013-07-16 08:27:00,
2013-07-16 03:32:00,70.4,69.5,30.17,ESE,110,3.0,6.0,97,0.00,,BKN190,0.00,VWS V14.01,2013-07-16 08:32:00,
2013-07-16 03:37:00,70.6,69.4,30.17,ENE,66,2.0,8.0,96,0.00,,BKN190,0.00,VWS V14.01,2013-07-16 08:37:00,
2013-07-16 03:42:00,70.6,69.7,30.17,ESE,104,5.0,8.0,97,0.00,,BKN190,0.00,VWS V14.01,2013-07-16 08:42:00,
2013-07-16 03:47:00,70.4,69.8,30.18,ENE,73,5.0,8.0,98,0.01,,BKN190,0.01,VWS V14.01,2013-07-16 08:47:00,
2013-07-16 03:52:00,70.3,70.0,30.18,ENE,78,3.0,8.0,99,0.01,,BKN190,0.01,VWS V14.01,2013-07-16 08:52:00,
2013-07-16 03:57:00,70.1,70.1,30.18,ENE,62,3.0,8.0,100,0.01,,BKN190,0.01,VWS V14.01,2013-07-16 08:57:00,
2013-07-16 04:00:00,70.1,69.8,30.18,ENE,69,5.0,8.0,99,0.01,,OVC041CB,0.01,VWS V14.01,2013-07-16 09:00:00,
2013-07-16 04:02:00,70.1,70.1,30.18,ESE,104,6.0,6.0,100,0.01,,OVC150,0.01,VWS V14.01,2013-07-16 09:02:00,
2013-07-16 04:07:00,70.1,70.1,30.18,ENE,73,2.0,7.0,100,0.01,,OVC150,0.01,VWS V14.01,2013-07-16 09:07:00,
2013-07-16 04:13:00,69.9,69.9,30.18,East,79,5.0,7.0,100,0.01,,OVC150,0.01,VWS V14.01,2013-07-16 09:13:00,
2013-07-16 04:18:00,69.9,69.9,30.18,ENE,71,2.0,7.0,100,0.01,,OVC150,0.01,VWS V14.01,2013-07-16 09:18:00,
2013-07-16 04:23:00,69.9,69.9,30.18,ENE,73,3.0,7.0,100,0.01,,OVC150,0.01,VWS V14.01,2013-07-16 09:23:00,
2013-07-16 04:28:00,69.9,69.9,30.18,East,82,3.0,7.0,100,0.01,,OVC150,0.01,VWS V14.01,2013-07-16 09:28:00,
2013-07-16 04:33:00,69.9,69.9,30.18,East,88,5.0,7.0,100,0.01,,OVC150,0.01,VWS V14.01,2013-07-16 09:33:00,
2013-07-16 04:38:00,69.9,69.9,30.18,ENE,58,2.0,7.0,100,0.01,,OVC150,0.01,VWS V14.01,2013-07-16 09:38:00,
2013-07-16 04:43:00,69.9,69.9,30.18,East,83,0.0,7.0,100,0.01,,OVC150,0.01,VWS V14.01,2013-07-16 09:43:00,
2013-07-16 04:48:00,69.9,69.9,30.17,ENE,78,2.0,7.0,100,0.01,,OVC150,0.01,VWS V14.01,2013-07-16 09:48:00,
2013-07-16 04:53:00,70.1,70.1,30.17,ENE,73,0.0,7.0,100,0.01,,OVC150,0.01,VWS V14.01,2013-07-16 09:53:00,
2013-07-16 04:58:00,70.1,70.1,30.17,ENE,73,0.0,7.0,100,0.01,,OVC150,0.01,VWS V14.01,2013-07-16 09:58:00,
2013-07-16 05:00:00,70.1,70.1,30.18,ENE,73,0.0,7.0,100,0.01,,OVC041CB,0.01,VWS V14.01,2013-07-16 10:00:00,
2013-07-16 05:03:00,70.1,70.1,30.18,ENE,73,0.0,3.0,100,0.00,,-RA,0.01,VWS V14.01,2013-07-16 10:03:00,
2013-07-16 05:08:00,70.1,70.1,30.18,ENE,73,0.0,3.0,100,0.00,,-RA,0.01,VWS V14.01,2013-07-16 10:08:00,
2013-07-16 05:13:00,69.9,69.9,30.18,ENE,73,0.0,3.0,100,0.00,,-RA,0.01,VWS V14.01,2013-07-16 10:13:00,
2013-07-16 05:18:00,69.9,69.9,30.17,ENE,73,0.0,3.0,100,0.00,,-RA,0.01,VWS V14.01,2013-07-16 10:18:00,
2013-07-16 05:23:00,69.9,69.9,30.17,ENE,73,0.0,3.0,100,0.00,,-RA,0.01,VWS V14.01,2013-07-16 10:23:00,
2013-07-16 05:28:00,69.9,69.9,30.17,ENE,73,0.0,3.0,100,0.00,,-RA,0.01,VWS V14.01,2013-07-16 10:28:00,
2013-07-16 05:33:00,69.9,69.9,30.17,ENE,73,0.0,3.0,100,0.00,,-RA,0.01,VWS V14.01,2013-07-16 10:33:00,
2013-07-16 05:38:00,69.8,69.8,30.17,ENE,73,0.0,3.0,100,0.00,,-RA,0.01,VWS V14.01,2013-07-16 10:38:00,
2013-07-16 05:44:00,69.8,69.8,30.17,ENE,73,0.0,3.0,100,0.00,,-RA,0.01,VWS V14.01,2013-07-16 10:44:00,
2013-07-16 05:49:00,69.6,69.6,30.17,ENE,73,0.0,3.0,100,0.00,,-RA,0.01,VWS V14.01,2013-07-16 10:49:00,
2013-07-16 05:54:00,69.6,69.6,30.17,ENE,73,0.0,3.0,100,0.00,,-RA,0.01,VWS V14.01,2013-07-16 10:54:00,
2013-07-16 05:59:00,69.6,69.6,30.17,ENE,73,0.0,3.0,100,0.00,,-RA,0.01,VWS V14.01,2013-07-16 10:59:00,
2013-07-16 06:04:00,69.6,69.6,30.17,ENE,73,0.0,0.0,100,0.00,,OVC150,0.01,VWS V14.01,2013-07-16 11:04:00,
2013-07-16 06:09:00,69.4,69.4,30.17,ENE,73,1.0,2.0,100,0.00,,OVC150,0.01,VWS V14.01,2013-07-16 11:09:00,
2013-07-16 06:14:00,69.4,69.4,30.17,ENE,72,0.0,2.0,100,0.00,,OVC150,0.01,VWS V14.01,2013-07-16 11:14:00,
2013-07-16 06:19:00,69.4,69.4,30.18,ENE,73,0.0,3.0,100,0.00,,OVC150,0.01,VWS V14.01,2013-07-16 11:19:00,
2013-07-16 06:24:00,69.4,69.4,30.18,ENE,72,0.0,3.0,100,0.00,,OVC150,0.01,VWS V14.01,2013-07-16 11:24:00,
2013-07-16 06:29:00,69.4,69.4,30.18,ENE,72,1.0,3.0,100,0.00,,OVC150,0.01,VWS V14.01,2013-07-16 11:29:00,
2013-07-16 06:34:00,69.4,69.4,30.18,ENE,72,0.0,3.0,100,0.01,,OVC150,0.02,VWS V14.01,2013-07-16 11:34:00,
2013-07-16 06:39:00,69.4,69.4,30.18,ENE,72,0.0,3.0,100,0.01,,OVC150,0.02,VWS V14.01,2013-07-16 11:39:00,
2013-07-16 06:44:00,69.4,69.4,30.18,ENE,72,0.0,3.0,100,0.01,,OVC150,0.02,VWS V14.01,2013-07-16 11:44:00,
2013-07-16 06:49:00,69.4,69.4,30.18,ENE,75,0.0,3.0,100,0.01,,OVC150,0.02,VWS V14.01,2013-07-16 11:49:00,
2013-07-16 06:54:00,69.6,69.6,30.18,ENE,75,0.0,3.0,100,0.01,,OVC150,0.02,VWS V14.01,2013-07-16 11:54:00,
2013-07-16 06:59:00,69.6,69.6,30.19,ENE,75,0.0,5.0,100,0.01,,OVC150,0.02,VWS V14.01,2013-07-16 11:59:00,
2013-07-16 07:04:00,69.8,69.8,30.19,ENE,75,2.0,5.0,100,0.01,,,0.02,VWS V14.01,2013-07-16 12:04:00,
2013-07-16 07:09:00,69.9,69.9,30.19,ENE,66,1.0,5.0,100,0.01,,,0.02,VWS V14.01,2013-07-16 12:09:00,
2013-07-16 07:15:00,70.1,70.1,30.19,ENE,75,2.0,7.0,100,0.01,,,0.02,VWS V14.01,2013-07-16 12:15:00,
2013-07-16 07:20:00,70.3,70.3,30.19,ENE,73,3.0,10.0,100,0.01,,,0.02,VWS V14.01,2013-07-16 12:20:00,
2013-07-16 07:25:00,70.3,70.3,30.19,ENE,68,3.0,10.0,100,0.01,,,0.02,VWS V14.01,2013-07-16 12:25:00,
2013-07-16 07:30:00,70.3,70.3,30.19,ENE,75,0.0,10.0,100,0.01,,,0.02,VWS V14.01,2013-07-16 12:30:00,
2013-07-16 07:35:00,70.3,70.3,30.19,East,79,3.0,10.0,100,0.01,,,0.02,VWS V14.01,2013-07-16 12:35:00,
2013-07-16 07:40:00,70.3,70.3,30.19,East,86,2.0,10.0,100,0.01,,,0.02,VWS V14.01,2013-07-16 12:40:00,
2013-07-16 07:45:00,70.3,70.3,30.20,ENE,65,1.0,10.0,100,0.01,,,0.02,VWS V14.01,2013-07-16 12:45:00,
2013-07-16 07:50:00,70.4,70.4,30.20,ENE,72,2.0,10.0,100,0.01,,,0.02,VWS V14.01,2013-07-16 12:50:00,
2013-07-16 07:55:00,70.4,70.4,30.20,East,85,0.0,10.0,100,0.01,,,0.02,VWS V14.01,2013-07-16 12:55:00,
2013-07-16 08:00:00,70.6,70.6,30.21,East,85,2.0,10.0,100,0.01,,,0.02,VWS V14.01,2013-07-16 13:00:00,
2013-07-16 08:05:00,70.8,70.8,30.21,East,97,2.0,7.0,100,0.00,,BKN250,0.02,VWS V14.01,2013-07-16 13:05:00,
2013-07-16 08:10:00,70.9,70.9,30.21,East,90,2.0,7.0,100,0.00,,BKN250,0.02,VWS V14.01,2013-07-16 13:10:00,
2013-07-16 08:15:00,71.3,71.3,30.21,East,96,2.0,7.0,100,0.00,,BKN250,0.02,VWS V14.01,2013-07-16 13:15:00,
2013-07-16 08:20:00,71.5,71.5,30.21,East,88,0.0,7.0,100,0.00,,BKN250,0.02,VWS V14.01,2013-07-16 13:20:00,
2013-07-16 08:25:00,71.8,71.8,30.21,NE,52,2.0,7.0,100,0.00,,BKN250,0.02,VWS V14.01,2013-07-16 13:25:00,
2013-07-16 08:30:00,72.3,72.3,30.22,East,80,1.0,7.0,100,0.00,,BKN250,0.02,VWS V14.01,2013-07-16 13:30:00,
2013-07-16 08:35:00,73.0,73.0,30.22,ENE,78,5.0,7.0,100,0.00,,BKN250,0.02,VWS V14.01,2013-07-16 13:35:00,
2013-07-16 08:40:00,73.5,72.9,30.22,East,82,2.0,7.0,98,0.00,,BKN250,0.02,VWS V14.01,2013-07-16 13:40:00,
2013-07-16 08:45:00,74.2,71.7,30.22,NNE,24,0.0,7.0,92,0.00,,BKN250,0.02,VWS V14.01,2013-07-16 13:45:00,
2013-07-16 08:50:00,74.9,71.4,30.22,East,85,3.0,7.0,89,0.00,,BKN250,0.02,VWS V14.01,2013-07-16 13:50:00,
2013-07-16 08:56:00,75.6,71.1,30.22,East,82,1.0,7.0,86,0.00,,BKN250,0.02,VWS V14.01,2013-07-16 13:56:00,
2013-07-16 09:01:00,76.1,70.6,30.22,East,82,0.0,2.0,83,0.00,,BKN250,0.02,VWS V14.01,2013-07-16 14:01:00,
2013-07-16 09:06:00,76.5,71.3,30.22,ENE,78,0.0,5.0,84,0.00,,BKN250,0.02,VWS V14.01,2013-07-16 14:06:00,
2013-07-16 09:11:00,77.4,71.1,30.22,East,79,0.0,5.0,81,0.00,,BKN250,0.02,VWS V14.01,2013-07-16 14:11:00,
2013-07-16 09:16:00,77.9,70.9,30.23,ENE,71,0.0,5.0,79,0.00,,BKN250,0.02,VWS V14.01,2013-07-16 14:16:00,
2013-07-16 09:21:00,78.5,70.7,30.23,East,90,0.0,5.0,77,0.00,,BKN250,0.02,VWS V14.01,2013-07-16 14:21:00,
2013-07-16 09:26:00,79.2,71.4,30.23,ESE,102,2.0,5.0,77,0.00,,BKN250,0.02,VWS V14.01,2013-07-16 14:26:00,
2013-07-16 09:31:00,79.6,71.4,30.23,East,92,1.0,5.0,76,0.00,,BKN250,0.02,VWS V14.01,2013-07-16 14:31:00,
2013-07-16 09:36:00,80.1,70.3,30.23,East,93,3.0,7.0,72,0.00,,BKN250,0.02,VWS V14.01,2013-07-16 14:36:00,
2013-07-16 09:41:00,80.1,69.9,30.23,East,99,0.0,7.0,71,0.00,,BKN250,0.02,VWS V14.01,2013-07-16 14:41:00,
2013-07-16 09:46:00,80.5,70.2,30.23,East,97,0.0,7.0,71,0.00,,BKN250,0.02,VWS V14.01,2013-07-16 14:46:00,
2013-07-16 09:51:00,80.5,69.8,30.23,SE,124,2.0,7.0,70,0.00,,BKN250,0.02,VWS V14.01,2013-07-16 14:51:00,
2013-07-16 09:56:00,80.9,70.2,30.23,SSE,157,0.0,7.0,70,0.00,,BKN250,0.02,VWS V14.01,2013-07-16 14:56:00,
2013-07-16 10:00:00,80.9,70.2,30.23,SE,133,0.0,7.0,70,0.00,,OVC041CB,0.02,VWS V14.01,2013-07-16 15:00:00,
2013-07-16 10:01:00,80.7,70.4,30.23,ESE,121,2.0,5.0,71,0.00,,SCT250,0.02,VWS V14.01,2013-07-16 15:01:00,
2013-07-16 10:06:00,80.5,70.7,30.23,ESE,121,1.0,6.0,72,0.00,,SCT250,0.02,VWS V14.01,2013-07-16 15:06:00,
2013-07-16 10:11:00,80.9,70.2,30.23,SSE,168,0.0,6.0,70,0.00,,SCT250,0.02,VWS V14.01,2013-07-16 15:11:00,
2013-07-16 10:16:00,81.4,69.8,30.23,ESE,117,0.0,6.0,68,0.00,,SCT250,0.02,VWS V14.01,2013-07-16 15:16:00,
2013-07-16 10:22:00,81.8,71.1,30.23,ENE,65,0.0,6.0,70,0.00,,SCT250,0.02,VWS V14.01,2013-07-16 15:22:00,
2013-07-16 10:29:00,82.6,70.5,30.23,SW,234,2.0,6.0,67,0.00,,SCT250,0.02,VWS V14.01,2013-07-16 15:29:00,
2013-07-16 10:34:00,82.8,70.7,30.22,ENE,73,0.0,6.0,67,0.00,,SCT250,0.02,VWS V14.01,2013-07-16 15:34:00,
2013-07-16 10:39:00,83.2,70.2,30.22,South,172,5.0,6.0,65,0.00,,SCT250,0.02,VWS V14.01,2013-07-16 15:39:00,
2013-07-16 10:44:00,83.2,69.8,30.23,East,96,2.0,6.0,64,0.00,,SCT250,0.02,VWS V14.01,2013-07-16 15:44:00,
2013-07-16 10:50:00,83.4,70.9,30.23,ENE,72,5.0,7.0,66,0.00,,SCT250,0.02,VWS V14.01,2013-07-16 15:50:00,
2013-07-16 10:56:00,83.4,69.9,30.23,ENE,76,0.0,10.0,64,0.00,,SCT250,0.02,VWS V14.01,2013-07-16 15:56:00,
2013-07-16 11:01:00,83.6,70.1,30.23,ENE,71,5.0,5.0,64,0.00,,SCT250,0.02,VWS V14.01,2013-07-16 16:01:00,
2013-07-16 11:06:00,83.8,68.4,30.23,SSE,147,0.0,7.0,60,0.00,,SCT250,0.02,VWS V14.01,2013-07-16 16:06:00,
2013-07-16 11:11:00,83.8,68.0,30.23,East,95,1.0,8.0,59,0.00,,SCT250,0.02,VWS V14.01,2013-07-16 16:11:00,
2013-07-16 11:16:00,84.1,69.2,30.22,East,86,7.0,8.0,61,0.00,,SCT250,0.02,VWS V14.01,2013-07-16 16:16:00,
2013-07-16 11:21:00,84.1,69.2,30.22,East,96,3.0,8.0,61,0.00,,SCT250,0.02,VWS V14.01,2013-07-16 16:21:00,
2013-07-16 11:26:00,84.5,70.1,30.22,East,93,1.0,8.0,62,0.00,,SCT250,0.02,VWS V14.01,2013-07-16 16:26:00,
2013-07-16 11:31:00,84.7,70.7,30.22,SSE,148,2.0,8.0,63,0.00,,SCT250,0.02,VWS V14.01,2013-07-16 16:31:00,
2013-07-16 11:37:00,85.1,70.2,30.22,East,99,2.0,8.0,61,0.00,,SCT250,0.02,VWS V14.01,2013-07-16 16:37:00,
2013-07-16 11:42:00,84.7,69.3,30.22,ENE,68,2.0,8.0,60,0.00,,SCT250,0.02,VWS V14.01,2013-07-16 16:42:00,
2013-07-16 11:47:00,85.3,70.8,30.22,South,185,2.0,8.0,62,0.00,,SCT250,0.02,VWS V14.01,2013-07-16 16:47:00,
2013-07-16 11:52:00,85.5,70.5,30.22,ENE,73,3.0,8.0,61,0.00,,SCT250,0.02,VWS V14.01,2013-07-16 16:52:00,
2013-07-16 11:57:00,85.1,69.7,30.22,SSW,198,5.0,8.0,60,0.00,,SCT250,0.02,VWS V14.01,2013-07-16 16:57:00,
2013-07-16 12:00:00,84.7,69.8,30.22,South,175,5.0,8.0,61,0.00,,OVC041CB,0.02,VWS V14.01,2013-07-16 17:00:00,
2013-07-16 12:02:00,84.5,70.1,30.22,ESE,107,2.0,5.0,62,0.00,,BKN150,0.02,VWS V14.01,2013-07-16 17:02:00,
2013-07-16 12:07:00,84.1,69.7,30.22,East,100,5.0,5.0,62,0.00,,BKN150,0.02,VWS V14.01,2013-07-16 17:07:00,
2013-07-16 12:12:00,84.0,69.6,30.22,ESE,107,2.0,6.0,62,0.00,,BKN150,0.02,VWS V14.01,2013-07-16 17:12:00,
2013-07-16 12:17:00,84.0,70.5,30.22,East,82,1.0,7.0,64,0.00,,BKN150,0.02,VWS V14.01,2013-07-16 17:17:00,
2013-07-16 12:22:00,83.4,70.9,30.22,ENE,76,0.0,7.0,66,0.00,,BKN150,0.02,VWS V14.01,2013-07-16 17:22:00,
2013-07-16 12:27:00,82.6,70.5,30.22,ENE,72,5.0,8.0,67,0.00,,BKN150,0.02,VWS V14.01,2013-07-16 17:27:00,
2013-07-16 12:32:00,82.2,71.9,30.22,ENE,78,3.0,8.0,71,0.00,,BKN150,0.02,VWS V14.01,2013-07-16 17:32:00,
2013-07-16 12:37:00,82.0,71.7,30.22,East,86,2.0,8.0,71,0.00,,BKN150,0.02,VWS V14.01,2013-07-16 17:37:00,
2013-07-16 12:42:00,82.0,71.7,30.22,East,95,0.0,10.0,71,0.00,,BKN150,0.02,VWS V14.01,2013-07-16 17:42:00,
2013-07-16 12:47:00,82.0,72.1,30.22,ENE,66,0.0,10.0,72,0.00,,BKN150,0.02,VWS V14.01,2013-07-16 17:47:00,
2013-07-16 12:52:00,81.8,71.1,30.22,ENE,58,3.0,10.0,70,0.00,,BKN150,0.02,VWS V14.01,2013-07-16 17:52:00,
2013-07-16 12:58:00,81.8,71.5,30.22,ENE,72,0.0,10.0,71,0.00,,BKN150,0.02,VWS V14.01,2013-07-16 17:58:00,
2013-07-16 13:03:00,81.8,70.6,30.22,ENE,76,0.0,2.0,69,0.00,,BKN140,0.02,VWS V14.01,2013-07-16 18:03:00,
2013-07-16 13:08:00,82.2,71.9,30.22,ENE,71,2.0,5.0,71,0.00,,BKN140,0.02,VWS V14.01,2013-07-16 18:08:00,
2013-07-16 13:13:00,82.4,72.1,30.22,East,92,2.0,6.0,71,0.00,,BKN140,0.02,VWS V14.01,2013-07-16 18:13:00,
2013-07-16 13:18:00,82.4,70.3,30.22,East,99,0.0,6.0,67,0.00,,BKN140,0.02,VWS V14.01,2013-07-16 18:18:00,
2013-07-16 13:23:00,82.4,69.5,30.22,East,88,3.0,7.0,65,0.00,,BKN140,0.02,VWS V14.01,2013-07-16 18:23:00,
2013-07-16 13:28:00,82.2,69.3,30.22,East,79,6.0,7.0,65,0.00,,BKN140,0.02,VWS V14.01,2013-07-16 18:28:00,
2013-07-16 13:33:00,82.2,70.2,30.22,East,85,2.0,7.0,67,0.00,,BKN140,0.02,VWS V14.01,2013-07-16 18:33:00,
2013-07-16 13:38:00,82.2,69.3,30.22,ESE,106,1.0,7.0,65,0.00,,BKN140,0.02,VWS V14.01,2013-07-16 18:38:00,
2013-07-16 13:43:00,82.4,70.3,30.22,ENE,65,5.0,7.0,67,0.00,,BKN140,0.02,VWS V14.01,2013-07-16 18:43:00,
2013-07-16 13:48:00,82.8,70.7,30.21,ENE,76,3.0,7.0,67,0.00,,BKN140,0.02,VWS V14.01,2013-07-16 18:48:00,
2013-07-16 13:53:00,83.0,70.5,30.21,ENE,64,2.0,7.0,66,0.00,,BKN140,0.02,VWS V14.01,2013-07-16 18:53:00,
2013-07-16 13:58:00,83.6,71.9,30.21,ENE,64,3.0,7.0,68,0.00,,BKN140,0.02,VWS V14.01,2013-07-16 18:58:00,
2013-07-16 14:03:00,84.1,71.5,30.20,ENE,75,2.0,7.0,66,0.00,,BKN140,0.02,VWS V14.01,2013-07-16 19:03:00,
2013-07-16 14:08:00,84.3,72.2,30.20,East,83,5.0,7.0,67,0.00,,BKN140,0.02,VWS V14.01,2013-07-16 19:08:00,
2013-07-16 14:13:00,84.3,70.3,30.20,ENE,76,2.0,7.0,63,0.00,,BKN140,0.02,VWS V14.01,2013-07-16 19:13:00,
2013-07-16 14:18:00,84.7,70.2,30.20,ESE,110,0.0,7.0,62,0.00,,BKN140,0.02,VWS V14.01,2013-07-16 19:18:00,
2013-07-16 14:20:00,85.1,71.6,30.20,East,90,2.0,7.0,64,0.00,,BKN140,0.02,VWS V14.01,2013-07-16 19:20:00,
2013-07-16 14:25:00,85.7,70.2,30.20,ESE,107,0.0,7.0,60,0.00,,BKN140,0.02,VWS V14.01,2013-07-16 19:25:00,
2013-07-16 14:31:00,85.7,69.7,30.19,ENE,72,0.0,7.0,59,0.00,,BKN140,0.02,VWS V14.01,2013-07-16 19:31:00,
2013-07-16 14:36:00,85.3,70.3,30.19,East,79,3.0,7.0,61,0.00,,BKN140,0.02,VWS V14.01,2013-07-16 19:36:00,
2013-07-16 14:41:00,84.9,70.4,30.19,ENE,76,3.0,7.0,62,0.00,,BKN140,0.02,VWS V14.01,2013-07-16 19:41:00,
2013-07-16 14:46:00,84.9,70.9,30.18,East,83,6.0,7.0,63,0.00,,BKN140,0.02,VWS V14.01,2013-07-16 19:46:00,
2013-07-16 14:51:00,84.9,71.8,30.18,East,88,1.0,8.0,65,0.00,,BKN140,0.02,VWS V14.01,2013-07-16 19:51:00,
2013-07-16 14:56:00,85.1,70.6,30.18,ENE,78,0.0,8.0,62,0.00,,BKN140,0.02,VWS V14.01,2013-07-16 19:56:00,
2013-07-16 15:01:00,85.7,71.7,30.18,ENE,71,0.0,2.0,63,0.00,,BKN140,0.02,VWS V14.01,2013-07-16 20:01:00,
2013-07-16 15:06:00,86.1,72.0,30.18,ENE,68,7.0,7.0,63,0.00,,BKN140,0.02,VWS V14.01,2013-07-16 20:06:00,
2013-07-16 15:11:00,86.5,71.9,30.18,East,88,6.0,8.0,62,0.00,,BKN140,0.02,VWS V14.01,2013-07-16 20:11:00,
2013-07-16 15:16:00,86.1,70.6,30.17,ENE,76,2.0,8.0,60,0.00,,BKN140,0.02,VWS V14.01,2013-07-16 20:16:00,
2013-07-16 15:21:00,86.7,72.1,30.17,ENE,76,2.0,8.0,62,0.00,,BKN140,0.02,VWS V14.01,2013-07-16 20:21:00,
2013-07-16 15:26:00,87.2,70.1,30.17,ESE,104,0.0,8.0,57,0.00,,BKN140,0.02,VWS V14.01,2013-07-16 20:26:00,
2013-07-16 15:31:00,87.6,67.8,30.17,ESE,102,0.0,8.0,52,0.00,,BKN140,0.02,VWS V14.01,2013-07-16 20:31:00,
2013-07-16 15:36:00,87.8,70.2,30.17,SSE,157,7.0,8.0,56,0.00,,BKN140,0.02,VWS V14.01,2013-07-16 20:36:00,
2013-07-16 15:41:00,88.0,71.4,30.17,ENE,68,0.0,8.0,58,0.00,,BKN140,0.02,VWS V14.01,2013-07-16 20:41:00,
2013-07-16 15:46:00,87.4,68.7,30.17,East,89,6.0,8.0,54,0.00,,BKN140,0.02,VWS V14.01,2013-07-16 20:46:00,
2013-07-16 15:48:00,87.2,70.1,30.17,ENE,73,0.0,8.0,57,0.00,,BKN140,0.02,VWS V14.01,2013-07-16 20:48:00,
2013-07-16 15:53:00,87.2,69.1,30.17,ENE,71,5.0,8.0,55,0.00,,BKN140,0.02,VWS V14.01,2013-07-16 20:53:00,
2013-07-16 15:59:00,87.0,71.4,30.17,ENE,72,2.0,8.0,60,0.00,,BKN140,0.02,VWS V14.01,2013-07-16 20:59:00,
2013-07-16 16:04:00,87.2,71.6,30.17,ENE,64,1.0,5.0,60,0.00,,BKN140,0.02,VWS V14.01,2013-07-16 21:04:00,
2013-07-16 16:09:00,87.6,70.5,30.17,East,90,3.0,6.0,57,0.00,,BKN140,0.02,VWS V14.01,2013-07-16 21:09:00,
2013-07-16 16:14:00,87.2,70.1,30.17,NE,56,10.0,10.0,57,0.00,,BKN140,0.02,VWS V14.01,2013-07-16 21:14:00,
2013-07-16 16:19:00,87.0,69.9,30.17,ENE,78,1.0,10.0,57,0.00,,BKN140,0.02,VWS V14.01,2013-07-16 21:19:00,
2013-07-16 16:24:00,87.2,70.6,30.17,ENE,66,0.0,10.0,58,0.00,,BKN140,0.02,VWS V14.01,2013-07-16 21:24:00,
2013-07-16 16:29:00,87.6,69.4,30.17,ENE,65,5.0,11.0,55,0.00,,BKN140,0.02,VWS V14.01,2013-07-16 21:29:00,
2013-07-16 16:34:00,88.0,70.9,30.17,ENE,58,7.0,11.0,57,0.00,,BKN140,0.02,VWS V14.01,2013-07-16 21:34:00,
2013-07-16 16:39:00,84.7,66.2,30.17,ESE,109,5.0,16.0,54,0.00,,BKN140,0.02,VWS V14.01,2013-07-16 21:39:00,
2013-07-16 16:44:00,82.6,65.8,30.18,NE,44,7.0,17.0,57,0.00,,BKN140,0.02,VWS V14.01,2013-07-16 21:44:00,
2013-07-16 16:49:00,78.1,69.5,30.18,East,83,7.0,17.0,75,0.00,,BKN140,0.02,VWS V14.01,2013-07-16 21:49:00,
2013-07-16 16:54:00,76.3,69.3,30.18,ENE,69,5.0,17.0,79,0.00,,BKN140,0.02,VWS V14.01,2013-07-16 21:54:00,
2013-07-16 16:59:00,75.8,68.8,30.19,ENE,69,0.0,17.0,79,0.00,,BKN140,0.02,VWS V14.01,2013-07-16 21:59:00,
2013-07-16 17:04:00,76.3,70.4,30.19,ENE,69,0.0,2.0,82,0.00,,SHRA,0.02,VWS V14.01,2013-07-16 22:04:00,
2013-07-16 17:09:00,76.3,70.8,30.19,ENE,69,0.0,2.0,83,0.00,,SHRA,0.02,VWS V14.01,2013-07-16 22:09:00,
2013-07-16 17:14:00,76.0,70.1,30.19,ENE,69,0.0,2.0,82,0.00,,SHRA,0.02,VWS V14.01,2013-07-16 22:14:00,
2013-07-16 17:19:00,76.0,70.5,30.19,ENE,69,0.0,2.0,83,0.00,,SHRA,0.02,VWS V14.01,2013-07-16 22:19:00,
2013-07-16 17:24:00,76.3,70.1,30.19,ENE,69,0.0,2.0,81,0.00,,SHRA,0.02,VWS V14.01,2013-07-16 22:24:00,
2013-07-16 17:30:00,76.3,70.1,30.19,ENE,69,0.0,2.0,81,0.00,,SHRA,0.02,VWS V14.01,2013-07-16 22:30:00,
2013-07-16 17:35:00,76.7,69.7,30.19,ENE,66,0.0,3.0,79,0.00,,SHRA,0.02,VWS V14.01,2013-07-16 22:35:00,
2013-07-16 17:40:00,76.8,69.8,30.19,ENE,66,1.0,3.0,79,0.00,,SHRA,0.02,VWS V14.01,2013-07-16 22:40:00,
2013-07-16 17:45:00,76.7,69.3,30.19,East,86,2.0,5.0,78,0.00,,SHRA,0.02,VWS V14.01,2013-07-16 22:45:00,
2013-07-16 17:50:00,77.0,70.4,30.19,East,86,0.0,5.0,80,0.00,,SHRA,0.02,VWS V14.01,2013-07-16 22:50:00,
2013-07-16 17:55:00,76.8,70.2,30.19,East,83,0.0,5.0,80,0.00,,SHRA,0.02,VWS V14.01,2013-07-16 22:55:00,
2013-07-16 18:00:00,76.7,70.1,30.19,East,82,0.0,5.0,80,0.00,,SHRA,0.02,VWS V14.01,2013-07-16 23:00:00,
2013-07-16 18:05:00,76.7,70.4,30.19,East,80,1.0,2.0,81,0.00,,-RA,0.02,VWS V14.01,2013-07-16 23:05:00,
2013-07-16 18:10:00,76.8,70.2,30.19,ENE,72,0.0,5.0,80,0.00,,-RA,0.02,VWS V14.01,2013-07-16 23:10:00,
2013-07-16 18:15:00,77.4,70.4,30.18,ENE,73,2.0,5.0,79,0.00,,-RA,0.02,VWS V14.01,2013-07-16 23:15:00,
2013-07-16 18:20:00,77.7,70.7,30.18,ENE,65,2.0,6.0,79,0.00,,-RA,0.02,VWS V14.01,2013-07-16 23:20:00,
2013-07-16 18:25:00,77.9,70.5,30.18,East,83,2.0,6.0,78,0.00,,-RA,0.02,VWS V14.01,2013-07-16 23:25:00,
2013-07-16 18:30:00,77.9,70.5,30.18,ENE,68,2.0,6.0,78,0.00,,-RA,0.02,VWS V14.01,2013-07-16 23:30:00,
2013-07-16 18:35:00,78.1,70.3,30.18,ENE,69,5.0,7.0,77,0.00,,-RA,0.02,VWS V14.01,2013-07-16 23:35:00,
2013-07-16 18:40:00,78.5,70.7,30.18,ENE,65,0.0,7.0,77,0.00,,-RA,0.02,VWS V14.01,2013-07-16 23:40:00,
2013-07-16 18:46:00,78.3,69.7,30.17,ENE,69,2.0,7.0,75,0.00,,-RA,0.02,VWS V14.01,2013-07-16 23:46:00,
2013-07-16 18:51:00,78.3,70.9,30.17,ENE,69,1.0,7.0,78,0.00,,-RA,0.02,VWS V14.01,2013-07-16 23:51:00,
2013-07-16 18:56:00,78.3,70.1,30.17,East,80,5.0,7.0,76,0.00,,-RA,0.02,VWS V14.01,2013-07-16 23:56:00,
2013-07-16 19:01:00,78.3,70.5,30.18,ENE,76,3.0,6.0,77,0.00,,BKN250,0.02,VWS V14.01,2013-07-17 00:01:00,
2013-07-16 19:06:00,78.3,68.9,30.18,ENE,65,2.0,7.0,73,0.00,,BKN250,0.02,VWS V14.01,2013-07-17 00:06:00,
2013-07-16 19:11:00,78.5,69.1,30.18,ENE,71,3.0,7.0,73,0.00,,BKN250,0.02,VWS V14.01,2013-07-17 00:11:00,
2013-07-16 19:16:00,78.6,70.4,30.20,ENE,73,6.0,7.0,76,0.00,,BKN250,0.02,VWS V14.01,2013-07-17 00:16:00,
2013-07-16 19:21:00,78.5,69.9,30.20,ENE,73,2.0,8.0,75,0.00,,BKN250,0.02,VWS V14.01,2013-07-17 00:21:00,
2013-07-16 19:26:00,78.5,69.5,30.20,ENE,75,1.0,8.0,74,0.00,,BKN250,0.02,VWS V14.01,2013-07-17 00:26:00,
2013-07-16 19:31:00,78.3,70.1,30.19,ENE,71,1.0,8.0,76,0.00,,BKN250,0.02,VWS V14.01,2013-07-17 00:31:00,
2013-07-16 19:36:00,78.3,70.1,30.19,ENE,71,0.0,8.0,76,0.00,,BKN250,0.02,VWS V14.01,2013-07-17 00:36:00,
2013-07-16 19:41:00,78.1,69.5,30.19,ENE,72,0.0,8.0,75,0.00,,BKN250,0.02,VWS V14.01,2013-07-17 00:41:00,
2013-07-16 19:46:00,78.1,69.1,30.19,East,82,3.0,8.0,74,0.00,,BKN250,0.02,VWS V14.01,2013-07-17 00:46:00,
2013-07-16 19:51:00,78.1,69.5,30.19,East,82,2.0,8.0,75,0.00,,BKN250,0.02,VWS V14.01,2013-07-17 00:51:00,
2013-07-16 19:56:00,78.1,69.5,30.19,East,79,2.0,8.0,75,0.00,,BKN250,0.02,VWS V14.01,2013-07-17 00:56:00,
2013-07-16 20:01:00,77.9,68.9,30.20,ESE,103,0.0,2.0,74,0.00,,BKN250,0.02,VWS V14.01,2013-07-17 01:01:00,
2013-07-16 20:06:00,77.9,68.9,30.20,ESE,102,0.0,2.0,74,0.00,,BKN250,0.02,VWS V14.01,2013-07-17 01:06:00,
2013-07-16 20:11:00,77.7,69.2,30.20,East,92,0.0,2.0,75,0.00,,BKN250,0.02,VWS V14.01,2013-07-17 01:11:00,
2013-07-16 20:17:00,77.6,69.4,30.19,East,93,0.0,2.0,76,0.00,,BKN250,0.02,VWS V14.01,2013-07-17 01:17:00,
2013-07-16 20:22:00,77.6,69.4,30.19,East,93,0.0,2.0,76,0.00,,BKN250,0.02,VWS V14.01,2013-07-17 01:22:00,
2013-07-16 20:27:00,77.4,69.2,30.19,East,93,1.0,2.0,76,0.00,,BKN250,0.02,VWS V14.01,2013-07-17 01:27:00,
2013-07-16 20:32:00,77.4,69.6,30.19,East,92,0.0,2.0,77,0.00,,BKN250,0.02,VWS V14.01,2013-07-17 01:32:00,
2013-07-16 20:37:00,77.4,69.2,30.19,East,93,2.0,2.0,76,0.00,,BKN250,0.02,VWS V14.01,2013-07-17 01:37:00,
2013-07-16 20:42:00,77.4,69.2,30.19,East,85,0.0,3.0,76,0.00,,BKN250,0.02,VWS V14.01,2013-07-17 01:42:00,
2013-07-16 20:47:00,77.6,69.4,30.19,East,79,2.0,7.0,76,0.00,,BKN250,0.02,VWS V14.01,2013-07-17 01:47:00,
2013-07-16 20:52:00,77.6,69.8,30.19,ENE,75,0.0,7.0,77,0.00,,BKN250,0.02,VWS V14.01,2013-07-17 01:52:00,
2013-07-16 20:57:00,77.6,69.8,30.19,ENE,71,0.0,7.0,77,0.00,,BKN250,0.02,VWS V14.01,2013-07-17 01:57:00,
2013-07-16 21:02:00,77.6,69.8,30.19,East,80,0.0,3.0,77,0.00,,BKN250,0.02,VWS V14.01,2013-07-17 02:02:00,
2013-07-16 21:07:00,77.6,70.2,30.19,East,80,0.0,3.0,78,0.00,,BKN250,0.02,VWS V14.01,2013-07-17 02:07:00,
2013-07-16 21:12:00,77.4,70.0,30.19,East,80,1.0,3.0,78,0.00,,BKN250,0.02,VWS V14.01,2013-07-17 02:12:00,
2013-07-16 21:17:00,77.4,70.0,30.19,East,80,0.0,3.0,78,0.00,,BKN250,0.02,VWS V14.01,2013-07-17 02:17:00,
2013-07-16 21:22:00,77.4,70.0,30.19,East,80,0.0,5.0,78,0.00,,BKN250,0.02,VWS V14.01,2013-07-17 02:22:00,
2013-07-16 21:27:00,77.4,70.0,30.19,East,80,0.0,5.0,78,0.00,,BKN250,0.02,VWS V14.01,2013-07-17 02:27:00,
2013-07-16 21:32:00,77.4,70.0,30.20,East,82,0.0,5.0,78,0.00,,BKN250,0.02,VWS V14.01,2013-07-17 02:32:00,
2013-07-16 21:37:00,77.4,69.6,30.20,East,79,3.0,5.0,77,0.00,,BKN250,0.02,VWS V14.01,2013-07-17 02:37:00,
2013-07-16 21:42:00,77.4,70.0,30.20,East,80,0.0,5.0,78,0.00,,BKN250,0.02,VWS V14.01,2013-07-17 02:42:00,
2013-07-16 21:48:00,77.2,70.2,30.21,East,80,1.0,5.0,79,0.00,,BKN250,0.02,VWS V14.01,2013-07-17 02:48:00,
2013-07-16 21:53:00,77.2,69.8,30.21,ENE,76,0.0,5.0,78,0.00,,BKN250,0.02,VWS V14.01,2013-07-17 02:53:00,
2013-07-16 21:58:00,77.2,70.2,30.21,ENE,76,0.0,5.0,79,0.00,,BKN250,0.02,VWS V14.01,2013-07-17 02:58:00,
2013-07-16 22:03:00,77.2,69.8,30.21,ENE,78,0.0,2.0,78,0.00,,BKN250,0.02,VWS V14.01,2013-07-17 03:03:00,
2013-07-16 22:08:00,77.0,70.0,30.21,ENE,76,0.0,5.0,79,0.00,,BKN250,0.02,VWS V14.01,2013-07-17 03:08:00,
2013-07-16 22:13:00,76.8,69.8,30.21,ENE,72,2.0,5.0,79,0.00,,BKN250,0.02,VWS V14.01,2013-07-17 03:13:00,
2013-07-16 22:18:00,76.8,70.2,30.22,ENE,75,0.0,5.0,80,0.00,,BKN250,0.02,VWS V14.01,2013-07-17 03:18:00,
2013-07-16 22:23:00,76.7,70.1,30.22,ENE,75,0.0,5.0,80,0.00,,BKN250,0.02,VWS V14.01,2013-07-17 03:23:00,
2013-07-16 22:28:00,76.5,69.9,30.22,ENE,75,0.0,5.0,80,0.00,,BKN250,0.02,VWS V14.01,2013-07-17 03:28:00,
2013-07-16 22:33:00,76.5,70.2,30.22,ENE,75,0.0,5.0,81,0.00,,BKN250,0.02,VWS V14.01,2013-07-17 03:33:00,
2013-07-16 22:38:00,76.3,70.1,30.22,ENE,75,0.0,5.0,81,0.00,,BKN250,0.02,VWS V14.01,2013-07-17 03:38:00,
2013-07-16 22:43:00,76.1,70.2,30.22,ENE,75,0.0,5.0,82,0.00,,BKN250,0.02,VWS V14.01,2013-07-17 03:43:00,
2013-07-16 22:48:00,76.1,70.2,30.22,ENE,75,0.0,5.0,82,0.00,,BKN250,0.02,VWS V14.01,2013-07-17 03:48:00,
2013-07-16 22:53:00,76.0,70.1,30.22,ENE,75,0.0,5.0,82,0.00,,BKN250,0.02,VWS V14.01,2013-07-17 03:53:00,
2013-07-16 22:58:00,75.6,70.1,30.22,ENE,75,0.0,5.0,83,0.00,,BKN250,0.02,VWS V14.01,2013-07-17 03:58:00,
2013-07-16 23:01:00,75.6,70.1,30.23,ENE,75,0.0,0.0,83,0.00,,BKN200,0.02,VWS V14.01,2013-07-17 04:01:00,
2013-07-16 23:02:00,75.6,70.1,30.23,ENE,75,0.0,0.0,83,0.00,,BKN200,0.02,VWS V14.01,2013-07-17 04:02:00,
2013-07-16 23:03:00,75.4,69.9,30.23,ENE,75,0.0,0.0,83,0.00,,BKN200,0.02,VWS V14.01,2013-07-17 04:03:00,
2013-07-16 23:05:00,75.4,69.9,30.23,ENE,75,0.0,0.0,83,0.00,,BKN200,0.02,VWS V14.01,2013-07-17 04:05:00,
2013-07-16 23:10:00,75.3,70.5,30.23,ENE,75,0.0,1.0,85,0.00,,BKN200,0.02,VWS V14.01,2013-07-17 04:10:00,
2013-07-16 23:15:00,75.3,70.5,30.23,ENE,75,0.0,1.0,85,0.00,,BKN200,0.02,VWS V14.01,2013-07-17 04:15:00,
2013-07-16 23:20:00,75.3,70.8,30.23,ENE,75,0.0,1.0,86,0.00,,BKN200,0.02,VWS V14.01,2013-07-17 04:20:00,
2013-07-16 23:25:00,75.3,70.8,30.23,ENE,75,0.0,1.0,86,0.00,,BKN200,0.02,VWS V14.01,2013-07-17 04:25:00,
2013-07-16 23:30:00,75.3,70.8,30.23,ENE,75,0.0,1.0,86,0.00,,BKN200,0.02,VWS V14.01,2013-07-17 04:30:00,
2013-07-16 23:35:00,75.3,70.8,30.23,ENE,75,0.0,1.0,86,0.00,,BKN200,0.02,VWS V14.01,2013-07-17 04:35:00,
2013-07-16 23:40:00,75.3,70.8,30.23,ENE,75,0.0,2.0,86,0.00,,BKN200,0.02,VWS V14.01,2013-07-17 04:40:00,
2013-07-16 23:45:00,75.1,70.6,30.23,ENE,75,0.0,2.0,86,0.00,,BKN200,0.02,VWS V14.01,2013-07-17 04:45:00,
2013-07-16 23:50:00,75.1,70.6,30.23,ENE,75,0.0,2.0,86,0.00,,BKN200,0.02,VWS V14.01,2013-07-17 04:50:00,
2013-07-16 23:55:00,75.1,70.6,30.23,ENE,75,0.0,2.0,86,0.00,,BKN200,0.02,VWS V14.01,2013-07-17 04:55:00,
2013-07-16 23:58:00,75.1,71.0,30.23,ENE,75,0.0,2.0,87,0.00,,BKN200,0.02,VWS V14.01,2013-07-17 04:58:00,